Location: Saint-Usage
(47.1052°N, 5.2587°E)
Time: 14:37:03
(UTC+01:00)

N. Korean satellite - Visible Passes

Search period start: 03 December 2022 00:00
Search period end: 13 December 2022 00:00
Orbit: 421 x 453 km, 97.3° (Epoch: 02 December)

Date Brightness Start Highest point End Pass type
(mag) Time Alt. Az. Time Alt. Az. Time Alt. Az.
03 Dec 9.4 05:09:20 10° NE 05:11:39 17° E 05:13:57 10° SE visible
03 Dec 7.1 06:41:11 10° N 06:44:15 32° WNW 06:47:18 10° SW visible
04 Dec 6.4 06:02:05 10° NNE 06:05:31 80° ESE 06:08:53 10° S visible
04 Dec 9.7 18:08:03 10° SW 18:10:03 15° W 18:12:04 10° NW visible
05 Dec 8.7 05:23:38 10° NE 05:26:31 25° E 05:29:21 10° SSE visible
05 Dec 7.6 06:56:14 10° NNW 06:58:54 22° WNW 07:01:34 10° WSW visible
05 Dec 7.9 17:27:41 10° S 17:30:55 42° W 17:34:12 10° NNW visible
06 Dec 6.3 06:16:48 10° N 06:20:11 65° WNW 06:23:31 10° SSW visible
07 Dec 7.9 05:38:00 10° NNE 05:41:11 37° E 05:44:20 10° SSE visible
07 Dec 8.0 07:11:19 10° NNW 07:13:24 15° WNW 07:15:28 10° WSW visible
07 Dec 8.8 17:42:35 10° SSW 17:45:33 28° W 17:48:34 10° NW visible
08 Dec 9.7 05:00:17 10° ENE 05:01:57 13° E 05:03:36 10° ESE visible
08 Dec 6.7 06:31:27 10° N 06:34:40 41° WNW 06:37:51 10° SW visible
09 Dec 6.9 05:52:21 10° NNE 05:55:42 58° E 05:58:59 10° S visible
09 Dec 8.4 07:26:46 10° NW 07:27:43 11° WNW 07:28:39 10° WNW visible
09 Dec 9.5 17:57:34 10° SW 18:00:05 19° W 18:02:38 10° NW visible
10 Dec 9.2 05:13:59 10° NE 05:16:28 19° E 05:18:54 10° SE visible
10 Dec 7.2 06:46:04 10° N 06:49:00 28° WNW 06:51:54 10° SW visible
10 Dec 7.2 17:17:29 10° S 17:20:50 58° W 17:24:14 10° NNW visible
11 Dec 6.2 06:06:38 10° NNE 06:10:02 89° WSW 06:13:22 10° SSW visible
11 Dec 9.8 18:12:45 10° WSW 18:14:30 13° W 18:16:14 10° WNW visible
12 Dec 8.5 05:27:52 10° NE 05:30:49 27° E 05:33:42 10° SSE visible
12 Dec 7.7 07:00:38 10° NNW 07:03:09 20° WNW 07:05:38 10° WSW visible
12 Dec 8.1 17:31:55 10° SSW 17:35:06 38° W 17:38:20 10° NNW visible
